Tracking 30923 objects as of 1-Jul-2025
HD Live streaming from Space Station
objects crossing your sky now

DELTA 1 DEB

Track DELTA 1 DEB now!
10-day predictions


NORAD ID: 42645
Int'l Code: 1975-052ME
Perigee: 1,101.9 km
Apogee: 1,515.0 km
Inclination: 99.7 °
Period: 111.6 minutes
Semi major axis: 7679 km
RCS: Unknown
Launch date: June 12, 1975
Source: United States (US)
Launch site: AIR FORCE WESTERN TEST RANGE (AFWTR)

Note: This is SATELLITE DEBRIS
Your satellite tracking list
LUCH (OLYMP)
Track 1 satellite(s)




NASA's NSSDC Master Catalog

Two Line Element Set (TLE):
1 42645U 75052ME  25174.61551252  .00000002  00000-0  13270-3 0  9994
2 42645  99.7316 109.4590 0268957 282.9788 261.2511 12.90051146416656
Source of the keplerian elements: AFSPC